#timestamp,LO_Frequency,Hit,StdDev 
1569654015.6,286046997.3,P
1569654035.5,286046995.9,P
1569654055.3,286046997.1,P
1569654075.2,286046997.1,Y
1569654095.9,286046999.4,P
1569654115.7,286046996.9,N
1569654135.6,286046997.0,N
1569654155.4,286046997.3,N
1569654175.2,286046996.6,Y
1569654195.1,286047004.2,P
1569654196.0,286047004.2,N
1569654215.8,286047002.9,N
1569654235.7,286047003.0,N
1569654255.5,286047002.7,N
1569654275.3,286047004.1,N
1569654295.2,286047002.5,N
1569654315.0,286047000.1,N
1569654315.9,286047000.1,N
1569654335.8,286047000.3,N
1569654355.6,286047000.2,N
1569654375.4,286047000.2,N
1569654395.3,286046999.5,N
1569654415.1,286046999.5,N
1569654435.8,286046996.6,N
1569654455.7,286046998.5,N
1569654475.5,286046998.1,N
1569654495.4,286046999.3,N
1569654515.2,286046999.3,N
1569654535.0,286046998.2,N
1569654535.9,286046998.2,N
1569654555.8,286047002.4,N
1569654575.6,286047002.3,N
1569654595.4,286046998.2,N
1569654615.3,286046998.4,N
1569654635.1,286047001.0,N
1569654655.9,286047001.5,N
1569654675.7,286047001.3,N
1569654695.5,286047004.4,N
1569654715.4,286047004.2,N
1569654735.2,286047003.2,N
1569654755.0,286047003.2,N
1569654755.9,286047003.2,N
1569654775.8,286047004.2,N
1569654795.6,286047004.2,N
1569654815.5,286047001.4,N
1569654835.3,286047003.5,N
1569654855.1,286047005.4,N
1569654875.9,286047003.5,N
1569654895.7,286047001.3,N
1569654915.5,286047001.8,N
1569654935.4,286047000.2,N
1569654955.2,286046999.7,N
1569654975.1,286047007.5,Y
1569654976.0,286047007.5,P
1569654995.8,286047002.6,N
1569655015.6,286046999.7,N
1569655035.5,286047004.1,N
1569655055.3,286047001.9,N
1569655075.1,286047004.4,N
1569655095.9,286047003.9,N
1569655115.7,286047003.3,N
1569655135.6,286047004.3,N
1569655155.4,286047003.1,N
1569655175.2,286047001.7,N
1569655195.1,286047004.3,N
1569655196.0,286047004.3,N
1569655215.8,286047001.9,N
1569655235.6,286047003.7,N
1569655255.5,286047003.0,N
1569655275.3,286047003.0,N
1569655295.2,286047001.5,N
1569655315.9,286047001.7,N
1569655335.7,286047003.1,N
1569655355.6,286047003.1,N
1569655375.4,286047005.1,Y
1569655395.2,286046999.8,P
1569655415.1,286047002.1,N
1569655416.0,286047002.1,N
1569655435.8,286047003.3,N
1569655455.7,286047003.9,Y
1569655475.5,286047000.0,P
1569655495.3,286047002.4,N
1569655515.2,286047002.0,N
1569655535.0,286047001.8,N
1569655535.9,286047001.8,N
1569655555.8,286046999.8,N
1569655575.6,286046999.8,N
1569655595.4,286047001.5,N
1569655615.3,286047003.1,Y
1569655635.1,286047005.9,P
1569655655.8,286047005.0,N
1569655675.7,286047007.4,P
1569655695.5,286047004.7,N
1569655715.4,286047008.7,Y
1569655735.2,286047004.0,P
1569655755.0,286047002.0,P
1569655755.9,286047002.0,N
1569655775.8,286047002.7,N
1569655795.6,286047002.2,N
1569655815.4,286047002.1,N
1569655835.3,286046999.8,N
1569655855.1,286046999.4,N
1569655875.9,286046998.9,N
1569655895.7,286046997.3,N
1569655915.5,286046998.4,N
1569655935.4,286046995.0,N
1569655955.2,286046995.9,N
1569655975.0,286046996.0,N
1569655975.9,286046996.0,N
1569655995.8,286046997.3,N
1569656015.6,286046997.3,N
1569656035.5,286046995.6,N
1569656055.3,286046996.0,N
1569656075.1,286046993.8,N
1569656095.9,286046996.7,N
1569656115.7,286046997.3,N
1569656135.5,286046999.4,N
1569656155.4,286046999.0,N
1569656175.2,286046997.5,N
1569656195.1,286046995.6,N
1569656196.0,286046995.6,N
1569656215.8,286046993.9,N
1569656235.6,286046994.1,N
1569656255.5,286046993.9,N
1569656275.3,286046993.6,N
1569656295.1,286046993.9,N
1569656315.9,286046994.5,N
1569656335.7,286046993.5,N
1569656355.6,286046993.6,N
1569656375.4,286046994.2,N
1569656395.2,286046993.7,Y
1569656415.1,286046998.9,P
1569656416.0,286047011.9,P
1569656435.8,286046999.1,N
1569656455.7,286046999.1,N
1569656475.5,286046999.0,N
1569656495.3,286046998.6,N
1569656515.2,286046999.1,N
1569656535.0,286046997.0,N
1569656535.9,286046997.0,N
1569656555.8,286046999.1,N
1569656575.6,286046996.6,N
1569656595.4,286046999.5,N
1569656615.3,286047000.7,N
1569656635.1,286047001.1,N
1569656655.8,286047001.2,N
1569656675.7,286046998.1,N
1569656695.5,286046999.2,N
1569656715.4,286046999.3,N
1569656735.2,286047001.2,N
1569656755.0,286046998.2,N
1569656755.9,286046998.2,N
1569656775.8,286047000.7,N
1569656795.6,286046998.8,N
1569656815.5,286046998.3,N
1569656835.3,286046998.7,N
1569656855.1,286046998.8,N
1569656875.9,286046999.4,N
1569656895.7,286046999.0,N
1569656915.5,286046999.4,N
1569656935.4,286046998.4,N
1569656955.2,286046994.9,N
1569656975.1,286046998.0,N
1569656976.0,286046998.0,N
1569656995.8,286046997.3,N
1569657015.6,286046995.1,Y
1569657035.5,286046996.0,P
1569657055.3,286046991.7,P
1569657075.2,286046993.9,N
1569657095.9,286046994.0,N
1569657115.7,286046996.3,N
1569657135.6,286046997.9,N
1569657155.4,286046995.9,N
1569657175.2,286046997.0,N
1569657195.1,286046999.4,N
1569657196.0,286046999.4,N
1569657215.8,286046997.8,N
1569657235.7,286046996.9,N
1569657255.5,286046997.8,N
1569657275.3,286046996.0,N
1569657295.2,286046998.0,N
1569657315.0,286046999.1,N
1569657315.9,286046999.1,N
1569657335.7,286046997.0,N
1569657355.6,286046996.7,N
1569657375.4,286046999.6,N
1569657395.3,286046997.3,N
1569657415.1,286046997.0,N
1569657416.0,286046997.0,N
1569657435.8,286046997.2,N
1569657455.7,286046998.5,N
1569657475.5,286046997.4,N
1569657495.4,286046998.6,N
1569657515.2,286046998.4,N
1569657535.0,286046997.0,N
1569657535.9,286046997.0,N
1569657555.8,286046997.5,N
1569657575.6,286046996.6,N
1569657595.4,286046999.2,N
